Weather History for Sevilla, Spain

Change the Weather History Date:

Thursday, December 20, 2012

  Actual Average Record
Temperature  
Mean Temperature 55 °F -  
Max Temperature 60 °F 59 °F 68 °F (2007)
Min Temperature 50 °F 42 °F 35 °F (2006)
Degree Days  
Heating Degree Days 10    
Growing Degree Days 5 (Base 50)    
Moisture  
Dew Point 56 °F    
Average Humidity 97    
Maximum Humidity 100    
Minimum Humidity 94    
Precipitation  
Precipitation 0.00 in - - ()
Sea Level Pressure  
Sea Level Pressure 30.19 in    
Wind  
Wind Speed 1 mph ()    
Max Wind Speed 10 mph    
Max Gust Speed -    
Visibility 2.8 miles    
Events      
Averages and records for this station are not official NWS values.
T = Trace of Precipitation, MM = Missing Value Source: Averaged Metar Reports

Daily Weather History Graph

Daily Weather History Graph

Search for Another Location

Airport:

Trip Planner

Search our weather history database for the weather conditions in past years. The results will help you decide how hot, cold, wet, or windy it might be!

Date:

Astronomy

Dec. 20, 2012 Rise Set
Actual Time 8:33 AM CET 6:08 PM CET
Civil Twilight 8:04 AM CET 6:38 PM CET
Nautical Twilight 7:31 AM CET 7:10 PM CET
Astronomical Twilight 7:00 AM CET 7:42 PM CET
Moon 1:13 PM CET (12/20) 1:13 AM CET (12/20)
Length of Visible Light 10h 33m
Length of Day
9h 34m
First Quarter, 52% of the Moon is Illuminated
Dec 20
First Quarter
Dec 28
Full
Jan 5
Last Quarter
Jan 11
New
Jan 19
First Quarter

Hourly Weather History & Observations

Time (CET) Temp. Dew Point Humidity Pressure Visibility Wind Dir Wind Speed Gust Speed Precip Events Conditions
12:00 AM 53.6 °F 53.6 °F 100% 30.18 in 1.9 mi Calm Calm - N/A   Mostly Cloudy
12:30 AM 53.6 °F 53.6 °F 100% 30.18 in 1.9 mi Calm Calm - N/A   Mostly Cloudy
1:00 AM 53.6 °F 51.8 °F 94% 30.18 in 1.9 mi ESE 1.2 mph - N/A   Scattered Clouds
1:30 AM 53.6 °F 51.8 °F 94% 30.18 in 1.9 mi Calm Calm - N/A   Mostly Cloudy
2:00 AM 53.6 °F 51.8 °F 94% 30.18 in 1.6 mi Calm Calm - N/A   Mostly Cloudy
4:30 AM 50.0 °F 50.0 °F 100% 30.18 in 1.9 mi Calm Calm - N/A   Scattered Clouds
5:00 AM 50.0 °F 50.0 °F 100% 30.18 in 1.9 mi Calm Calm - N/A   Scattered Clouds
5:30 AM 50.0 °F 50.0 °F 100% 30.18 in 1.9 mi Calm Calm - N/A   Mostly Cloudy
6:00 AM 51.8 °F 50.0 °F 94% 30.15 in 1.6 mi Calm Calm - N/A   Mostly Cloudy
6:30 AM 50.0 °F 50.0 °F 100% 30.15 in 1.6 mi Calm Calm - N/A   Scattered Clouds
7:00 AM 50.0 °F 50.0 °F 100% 30.15 in 1.6 mi Calm Calm - N/A   Scattered Clouds
7:30 AM 51.8 °F 50.0 °F 94% 30.15 in 1.6 mi Calm Calm - N/A   Mostly Cloudy
8:00 AM 51.8 °F 51.8 °F 100% 30.18 in 1.6 mi Calm Calm - N/A   Mostly Cloudy
8:30 AM 51.8 °F 51.8 °F 100% 30.18 in 1.9 mi Calm Calm - N/A   Mostly Cloudy
9:00 AM 53.6 °F 51.8 °F 94% 30.18 in 1.9 mi Calm Calm - N/A   Mostly Cloudy
9:30 AM 53.6 °F 53.6 °F 100% 30.18 in 0.6 mi Calm Calm - N/A   Light Drizzle
10:00 AM 53.6 °F 53.6 °F 100% 30.21 in 0.9 mi Calm Calm - N/A   Light Drizzle
10:30 AM 53.6 °F 53.6 °F 100% 30.21 in 0.7 mi Calm Calm - N/A   Drizzle
11:00 AM 55.4 °F 53.6 °F 94% 30.21 in 0.9 mi Calm Calm - N/A   Light Drizzle
11:30 AM 55.4 °F 55.4 °F 100% 30.21 in 1.9 mi SSE 3.5 mph - N/A   Mostly Cloudy
12:00 PM 55.4 °F 55.4 °F 100% 30.21 in 2.5 mi Calm Calm - N/A   Mostly Cloudy
12:30 PM 57.2 °F 57.2 °F 100% 30.21 in 2.5 mi Calm Calm - N/A   Mostly Cloudy
1:00 PM 59.0 °F 57.2 °F 94% 30.21 in 2.8 mi Variable 2.3 mph - N/A   Scattered Clouds
1:30 PM 60.8 °F 59.0 °F 94% 30.18 in 3.1 mi SW 3.5 mph - N/A   Scattered Clouds
2:00 PM 60.8 °F 59.0 °F 94% 30.18 in 3.1 mi Variable 2.3 mph - N/A   Mostly Cloudy
2:30 PM 60.8 °F 59.0 °F 94% 30.18 in 3.1 mi Variable 2.3 mph - N/A   Mostly Cloudy
3:00 PM 60.8 °F 59.0 °F 94% 30.18 in 3.1 mi SW 1.2 mph - N/A   Mostly Cloudy
3:30 PM 60.8 °F 59.0 °F 94% 30.15 in 3.1 mi SW 8.1 mph - N/A   Overcast
4:00 PM 60.8 °F 59.0 °F 94% 30.18 in 5.0 mi SW 8.1 mph - N/A   Mostly Cloudy
4:30 PM 60.8 °F 59.0 °F 94% 30.15 in 6.2 mi SW 4.6 mph - N/A   Mostly Cloudy
5:00 PM 60.8 °F 59.0 °F 94% 30.15 in 6.2 mi SW 8.1 mph - N/A   Mostly Cloudy
5:30 PM 60.8 °F 59.0 °F 94% 30.15 in 5.6 mi SW 10.4 mph - N/A   Overcast
6:00 PM 60.8 °F 59.0 °F 94% 30.18 in 5.6 mi SW 10.4 mph - N/A   Mostly Cloudy
6:30 PM 60.8 °F 59.0 °F 94% 30.18 in 6.2 mi SW 8.1 mph - N/A   Mostly Cloudy
7:00 PM 60.8 °F 59.0 °F 94% 30.18 in 6.2 mi SW 2.3 mph - N/A   Mostly Cloudy
7:30 PM 60.8 °F 59.0 °F 94% 30.21 in 4.3 mi Variable 1.2 mph - N/A   Mostly Cloudy
8:00 PM 60.8 °F 59.0 °F 94% 30.21 in 3.7 mi Calm Calm - N/A   Mostly Cloudy
8:30 PM 59.0 °F 59.0 °F 100% 30.21 in 3.7 mi South 2.3 mph - N/A   Mostly Cloudy
9:00 PM 59.0 °F 59.0 °F 100% 30.21 in 3.1 mi South 2.3 mph - N/A   Mostly Cloudy
9:30 PM 59.0 °F 59.0 °F 100% 30.21 in 3.1 mi South 2.3 mph - N/A   Scattered Clouds
10:00 PM 59.0 °F 59.0 °F 100% 30.21 in 3.1 mi South 3.5 mph - N/A   Scattered Clouds
10:30 PM 59.0 °F 59.0 °F 100% 30.21 in 3.1 mi Variable 2.3 mph - N/A   Scattered Clouds
11:00 PM 59.0 °F 59.0 °F 100% 30.24 in 2.5 mi Variable 2.3 mph - N/A   Scattered Clouds
11:30 PM 59.0 °F 59.0 °F 100% 30.24 in 2.5 mi Variable 2.3 mph - N/A   Scattered Clouds